ハリントン彗星

51P/Harrington (2001)

English version
Home page
Updated on May 5, 2012

---------------------------------------------------------------------

・ プロフィール

・ 軌道要素

Epoch 2001 June 20.0 TT = JDT 2452080.5
T 2001 June 5.72977 TT                                  MPC
q   1.5681089            (2000.0)            P               Q
n   0.14559602     Peri.  233.59531     +0.98406407     +0.11980790
a   3.5785167      Node   119.18297     -0.07125590     +0.94270802
e   0.5617992      Incl.    8.65563     -0.16291259     +0.31136418
P   6.77
From 788 observations 1994 May 1-2009 Feb. 21, mean residual 1".1.
     Nongravitational parameters A1 = +3.72, A2 = +0.0724.

・ 星図

・ 光度変化

        m1 =  7.6 + 5 logΔ + 30.0 log r  [   ,110]  (              〜2001年 9月23日)
        m1 =  4.7 + 5 logΔ + 30.0 log r  [110,130]  (2001年 9月23日〜2001年10月13日)
        m1 = -7.5 + 5 logΔ + 70.0 log r  [130,184]  (2001年10月13日〜2001年12月 6日)
        m1 =  4.0 + 5 logΔ + 30.0 log r  [184,   ]  (2001年12月 6日〜              )

---------------------------------------------------------------------

軌道要素はM.P.E.C. 2012-J16に掲載されたものです。
星図は StellaNavigator Ver.2.0 for Windows (アストロアーツ 編著 / アスキー出版局刊) で作成したものです。
光度グラフはComet for Windowsで作成したものです。

---------------------------------------------------------------------

Copyright(C) Seiichi Yoshida (comet@aerith.net). All rights reserved.